Location: Unspecified
(0.0000°N, 0.0000°E)
Time: 23:43:08
(UTC+00:00)

CUBEBUG 2 - Visible Passes

Search period start: 18 January 2019 00:00
Search period end: 28 January 2019 00:00
Orbit: 587 x 698 km, 97.6° (Epoch: 18 January)

Date Brightness Start Highest point End Pass type
(mag) Time Alt. Az. Time Alt. Az. Time Alt. Az.
19 Jan ? 18:33:26 10° SSW 18:37:04 23° WSW 18:40:45 10° NW visible
20 Jan ? 05:09:43 10° NE 05:13:00 22° ESE 05:16:15 10° SSE visible
20 Jan ? 19:00:19 10° WSW 19:01:16 11° WSW 19:02:13 10° W visible
21 Jan ? 05:33:07 10° NNE 05:37:12 51° ESE 05:41:13 10° S visible
23 Jan ? 04:48:55 10° E 04:49:13 10° ESE 04:49:31 10° ESE visible
23 Jan ? 18:33:57 10° SSW 18:37:34 22° WSW 18:41:13 10° NW visible
24 Jan ? 05:10:06 10° NE 05:13:24 23° ESE 05:16:42 10° SSE visible
24 Jan ? 19:01:11 10° WSW 19:01:45 10° WSW 19:02:19 10° W visible
25 Jan ? 05:33:33 10° NNE 05:37:36 53° ESE 05:41:38 10° S visible
27 Jan ? 04:48:51 10° E 04:49:38 10° ESE 04:50:25 10° ESE visible
27 Jan ? 18:34:29 10° SSW 18:38:03 21° WSW 18:41:38 10° NW visible
